Location: White Ridge parking lot
(35.4984°N, 106.8413°W)
Time: 05:16:04
(UTC-06:00)

XW-2C - Visible Passes

Search period start: 19 September 2019 00:00
Search period end: 29 September 2019 00:00
Orbit: 509 x 528 km, 97.5° (Epoch: 19 September)

Date Brightness Start Highest point End Pass type
(mag) Time Alt. Az. Time Alt. Az. Time Alt. Az.
19 Sep ? 05:57:56 10° E 05:58:39 10° E 05:59:23 10° ESE visible
20 Sep ? 19:28:53 10° WSW 19:30:34 13° W 19:32:16 10° WNW visible
24 Sep ? 06:20:24 10° NE 06:23:21 21° E 06:26:16 10° SSE visible
25 Sep ? 06:07:15 10° ENE 06:09:21 14° E 06:11:26 10° SE visible
27 Sep ? 19:25:15 10° SW 19:27:15 14° W 19:29:16 10° WNW visible
